Volver al catálogo

FENGYUN 1C DEB

ActivoSSO
NORAD 30441·DEBRIS·🇨🇳 China

Lanzado May 10, 1999 desde Taiyuan Satellite Launch Center

Loading…

Próximos Pases (próximas 24 horas)

TLE

ActualizadoSource: Space-Track

Época: Sep 14, 2026, 04:42 UTC

1 30441U 99025AFC 26257.19595493  .00000415  00000-0  40418-3 0  9994
2 30441  99.1236 341.0346 0183051 246.8571 111.3201 13.77952757986630

Sigue FENGYUN 1C DEB en tiempo real con AllMySat

Download on the App Store